Weather History for KHLC - May, 2013

Change the Weather History Date:

Wednesday, May 15, 2013

  Actual Average Record
Temperature  
Mean Temperature 75 °F 62 °F  
Max Temperature 89 °F 75 °F 97 °F (1931)
Min Temperature 60 °F 50 °F 27 °F (1907)
Cooling Degree Days 9    
Growing Degree Days 24 (Base 50)    
Moisture  
Dew Point 49 °F    
Average Humidity 41    
Maximum Humidity 68    
Minimum Humidity 27    
Precipitation  
Precipitation 0.01 in 0.14 in 0.52 in (2007)
Month to date precipitation 0.80 1.77  
Year to date precipitation 3.02 6.49  
Sea Level Pressure  
Sea Level Pressure 29.74 in    
Wind  
Wind Speed 10 mph (SE)    
Max Wind Speed 15 mph    
Max Gust Speed 24 mph    
Visibility 10 miles    
Events      
T = Trace of Precipitation, MM = Missing Value Source: NWS Daily Summary

Daily Weather History Graph

Daily Weather History Graph

Search for Another Location

Airport or City:

Trip Planner

Search our weather history database for the weather conditions in past years. The results will help you decide how hot, cold, wet, or windy it might be!

Date:

Astronomy

May. 15, 2013 Rise Set
Actual Time 6:25 AM CDT 8:46 PM CDT
Civil Twilight 5:55 AM CDT 9:16 PM CDT
Nautical Twilight 5:17 AM CDT 9:54 PM CDT
Astronomical Twilight 4:36 AM CDT 10:35 PM CDT
Moon 11:02 AM CDT (5/15) 12:34 AM CDT (5/15)
Length of Visible Light 15h 21m
Length of Day
14h 21m
Waxing Crescent, 27% of the Moon is Illuminated
May 15
Waxing Crescent
May 17
First Quarter
May 24
Full
May 31
Last Quarter
Jun 8
New

Hourly Weather History & Observations

Time (CDT) Temp. Heat Index Dew Point Humidity Pressure Visibility Wind Dir Wind Speed Gust Speed Precip Events Conditions
12:53 AM 73.9 °F - 46.0 °F 37% 29.76 in 10.0 mi WNW 13.8 mph - 0.00 in   Clear
1:53 AM 79.0 °F - 42.1 °F 27% 29.73 in 10.0 mi SSW 9.2 mph - N/A   Partly Cloudy
2:53 AM 77.0 °F - 42.1 °F 29% 29.72 in 10.0 mi SSW 15.0 mph 24.2 mph 0.01 in   Clear
3:53 AM 73.0 °F - 44.1 °F 35% 29.71 in 10.0 mi SSW 9.2 mph 17.3 mph N/A   Clear
4:53 AM 70.0 °F - 45.0 °F 41% 29.71 in 10.0 mi SW 9.2 mph - N/A   Clear
5:53 AM 64.0 °F - 46.9 °F 54% 29.72 in 10.0 mi WSW 3.5 mph - N/A   Clear
6:53 AM 61.0 °F - 48.0 °F 62% 29.75 in 10.0 mi NNE 9.2 mph - N/A   Clear
7:53 AM 64.0 °F - 50.0 °F 60% 29.76 in 10.0 mi ESE 3.5 mph - N/A   Clear
8:53 AM 68.0 °F - 50.0 °F 52% 29.77 in 10.0 mi SE 5.8 mph - N/A   Clear
9:53 AM 73.0 °F - 50.0 °F 44% 29.77 in 10.0 mi SE 5.8 mph - N/A   Clear
10:53 AM 75.0 °F - 48.0 °F 38% 29.76 in 10.0 mi ENE 4.6 mph - N/A   Clear
11:53 AM 79.0 °F - 48.9 °F 35% 29.76 in 10.0 mi ENE 10.4 mph 16.1 mph N/A   Clear
12:53 PM 80.1 °F - 52.0 °F 38% 29.78 in 10.0 mi ENE 11.5 mph - N/A   Clear
1:53 PM 82.0 °F - 52.0 °F 35% 29.75 in 10.0 mi East 9.2 mph - N/A   Clear
2:53 PM 84.9 °F 83.2 °F 53.1 °F 33% 29.74 in 10.0 mi East 11.5 mph 17.3 mph N/A   Clear
3:53 PM 87.1 °F - 48.9 °F 27% 29.72 in 10.0 mi ESE 11.5 mph - N/A   Clear
4:53 PM 86.0 °F 84.0 °F 53.1 °F 32% 29.71 in 10.0 mi East 9.2 mph - N/A   Clear
5:53 PM 87.1 °F 84.9 °F 53.1 °F 31% 29.70 in 10.0 mi East 12.7 mph - N/A   Clear
6:53 PM 86.0 °F - 48.9 °F 28% 29.70 in 10.0 mi SSE 9.2 mph - N/A   Clear
7:53 PM 82.9 °F - 50.0 °F 32% 29.70 in 10.0 mi SSE 12.7 mph - N/A   Clear
8:53 PM 77.0 °F - 51.1 °F 40% 29.72 in 10.0 mi SSE 11.5 mph - N/A   Clear
9:53 PM 71.1 °F - 53.1 °F 53% 29.75 in 10.0 mi South 5.8 mph - N/A   Clear
10:53 PM 69.1 °F - 53.1 °F 57% 29.78 in 10.0 mi South 3.5 mph - N/A   Clear
11:53 PM 66.0 °F - 55.0 °F 68% 29.78 in 10.0 mi South 5.8 mph - N/A   Clear